Weather History for Kahului, HI

Change the Weather History Date:

Friday, August 22, 2014

  Actual Average Record
Temperature  
Mean Temperature 82 °F 80 °F  
Max Temperature 89 °F 88 °F 92 °F (1987)
Min Temperature 75 °F 71 °F 61 °F (1976)
Degree Days  
Heating Degree Days 0 0  
Month to date heating degree days 0 0  
Since 1 June heating degree days 0 0  
Since 1 July heating degree days 0 0  
Cooling Degree Days 17 15  
Month to date cooling degree days 357 330  
Year to date cooling degree days 2751 2416  
Since 1 June cooling degree days 1255 1157  
Growing Degree Days 30 (Base 50)    
Moisture  
Dew Point 68 °F    
Average Humidity 63    
Maximum Humidity 79    
Minimum Humidity 47    
Precipitation  
Precipitation 0.00 in 0.02 in 0.46 in (1984)
Month to date precipitation 0.40 0.38  
Year to date precipitation 15.58 10.58  
Snow  
Snow 0.00 in - - ()
Month to date snowfall 0.0  
Since 1 June snowfall 0.0  
Since 1 July snowfall 0.0  
Snow Depth 0.00 in    
Sea Level Pressure  
Sea Level Pressure 30.01 in    
Wind  
Wind Speed 16 mph (NE)    
Max Wind Speed 25 mph    
Max Gust Speed 30 mph    
Visibility 10 miles    
Events Rain    
T = Trace of Precipitation, MM = Missing Value Source: NWS Daily Summary

Daily Weather History Graph

Daily Weather History Graph

Search for Another Location

Airport:

Trip Planner

Search our weather history database for the weather conditions in past years. The results will help you decide how hot, cold, wet, or windy it might be!

Date:

Astronomy

Aug. 22, 2014 Rise Set
Actual Time 6:06 AM HST 6:49 PM HST
Civil Twilight 5:44 AM HST 7:12 PM HST
Nautical Twilight 5:17 AM HST 7:39 PM HST
Astronomical Twilight 4:50 AM HST 8:06 PM HST
Moon 3:48 AM HST (8/22) 4:59 PM HST (8/22)
Length of Visible Light 13h 28m
Length of Day
12h 43m
Waning Crescent, 6% of the Moon is Illuminated
Aug 22
Waning Crescent
Aug 25
New
Sep 2
First Quarter
Sep 8
Full
Sep 15
Last Quarter

Hourly Weather History & Observations

Time (HST) Temp. Heat Index Dew Point Humidity Pressure Visibility Wind Dir Wind Speed Gust Speed Precip Events Conditions
12:54 AM 77.0 °F - 69.1 °F 76% 30.03 in 10.0 mi NE 13.8 mph - N/A   Clear
1:54 AM 77.0 °F - 68.0 °F 74% 30.02 in 10.0 mi NE 13.8 mph - N/A   Clear
2:54 AM 75.9 °F - 68.0 °F 76% 30.01 in 10.0 mi NE 11.5 mph - N/A   Mostly Cloudy
3:54 AM 75.9 °F - 66.0 °F 71% 30.00 in 10.0 mi NNE 11.5 mph - N/A   Scattered Clouds
4:54 AM 75.9 °F - 66.0 °F 71% 30.00 in 10.0 mi NE 8.1 mph - N/A   Scattered Clouds
5:54 AM 75.0 °F - 64.9 °F 71% 30.01 in 10.0 mi NE 10.4 mph - N/A   Partly Cloudy
6:54 AM 78.1 °F - 66.0 °F 66% 30.02 in 10.0 mi NE 13.8 mph - N/A   Partly Cloudy
7:54 AM 81.0 °F 83.3 °F 66.9 °F 62% 30.03 in 10.0 mi NE 18.4 mph - N/A   Partly Cloudy
8:54 AM 84.0 °F 86.5 °F 66.9 °F 56% 30.04 in 10.0 mi NE 18.4 mph - N/A   Scattered Clouds
9:54 AM 82.9 °F 85.4 °F 66.9 °F 58% 30.04 in 10.0 mi NNE 18.4 mph - N/A   Scattered Clouds
10:54 AM 84.0 °F 87.8 °F 69.1 °F 61% 30.04 in 10.0 mi NNE 16.1 mph - N/A   Mostly Cloudy
11:54 AM 89.1 °F 92.1 °F 66.9 °F 48% 30.02 in 10.0 mi NE 19.6 mph 26.5 mph N/A   Scattered Clouds
12:54 PM 88.0 °F 90.7 °F 66.9 °F 49% 30.01 in 10.0 mi NNE 23.0 mph 28.8 mph N/A   Scattered Clouds
1:54 PM 86.0 °F 90.1 °F 69.1 °F 57% 29.99 in 10.0 mi NE 20.7 mph 27.6 mph N/A   Scattered Clouds
2:54 PM 87.1 °F 90.6 °F 68.0 °F 53% 29.98 in 10.0 mi NE 24.2 mph 29.9 mph N/A   Scattered Clouds
3:54 PM 86.0 °F 90.1 °F 69.1 °F 57% 29.97 in 10.0 mi NE 20.7 mph - N/A   Scattered Clouds
4:54 PM 82.9 °F 86.5 °F 69.1 °F 63% 29.97 in 10.0 mi NE 19.6 mph 24.2 mph N/A   Scattered Clouds
5:54 PM 79.0 °F - 66.9 °F 66% 29.99 in 10.0 mi NE 9.2 mph - N/A   Scattered Clouds
6:54 PM 78.1 °F - 68.0 °F 71% 29.99 in 10.0 mi NE 10.4 mph - N/A   Scattered Clouds
7:54 PM 77.0 °F - 68.0 °F 74% 30.01 in 10.0 mi NE 9.2 mph - N/A   Partly Cloudy
8:54 PM 75.0 °F - 70.0 °F 84% 30.02 in 9.0 mi ENE 9.2 mph - 0.00 in Rain Light Rain
9:54 PM 73.9 °F - 70.0 °F 87% 30.03 in 10.0 mi NE 8.1 mph - 0.00 in   Partly Cloudy
10:54 PM 75.0 °F - 66.9 °F 76% 30.02 in 10.0 mi NE 10.4 mph - N/A   Partly Cloudy
11:54 PM 75.0 °F - 66.0 °F 73% 30.02 in 10.0 mi NE 9.2 mph - N/A   Clear